Regional Weather Roundup
Issued by NWS Wakefield, VA

Home | Current Version | Previous Version | Graphics & Text | Print | Product List | Glossary On
Versions: 1 2 3 4 5 6 7 8 9 10 11 12 13 14 15 16 17 18 19 20 21 22 23 24 25 26 27 28 29 30 31 32 33 34 35 36 37 38 39 40 41 42 43 44 45 46 47 48 49 50
000
ASUS41 KAKQ 031415
RWRAKQ

REGIONAL WEATHER ROUNDUP
NATIONAL WEATHER SERVICE WAKEFIELD VA
1000 AM EDT MON AUG 03 2015

Note: "fair" indicates few or no clouds below 12,000 feet with no
significant weather and/or obstructions to visibility. * = Denotes
station may not report precipitation (e.g., rain,snow,etc.),
thunder or fog.

VAZ042-051-052>054-056-031500-
NORTHERN VIRGINIA

CITY           SKY/WX    TMP DP  RH WIND       PRES   REMARKS
WASH NATIONAL  MOSUNNY   83  65  54 S9        29.89F
DULLES         MOSUNNY   78  64  61 CALM      29.88F
FORT BELVOIR   NOT AVBL
QUANTICO       MOSUNNY   83  63  51 S6        29.86S
FREDERICKSBRG* MOSUNNY   81  64  57 SW7       29.89F
STAFFORD*      MOSUNNY   79  62  54 SW6       29.94F
WARRENTON      SUNNY     81  68  66 CALM      29.89F
CULPEPER*      SUNNY     77  65  65 W3        29.91S
MANASSAS*      SUNNY     79  64  61 SW6       29.89S
LEESBURG*      SUNNY     81  66  61 SW8       29.90S
WINCHESTER     SUNNY     81  59  47 SW7       29.90S
FRONT ROYAL*   FAIR      77  61  57 SW7       29.90S
LURAY*         FAIR      81  63  54 SW7       29.92S
$$

VAZ048-049-060>072-079>083-031500-
CENTRAL AND SOUTH CENTRAL VIRGINIA

CITY           SKY/WX    TMP DP  RH WIND       PRES   REMARKS
RICHMOND       MOSUNNY   83  66  56 SW7       29.91S
CHESTERFIELD*  FAIR      81  61  50 SW5       29.93S
PETERSBURG*    SUNNY     81  74  80 SW7       29.93S
HANOVER        PTSUNNY   81  68  64 W6        29.93R
TAPPAHANNOCK*  SUNNY     81  68  65 CALM      29.92S
QUINTON*       FAIR      79  71  75 CALM      29.90F
CHARLOTTSVILLE SUNNY     79  63  57 S6        29.92R
GORDONSVILLE*  FAIR      75  66  73 S3        29.91F
ORANGE*        SUNNY     81  63  54 CALM      29.92F
LOUISA*        PTSUNNY   79  64  61 CALM      29.91S
BUMPASS*       FAIR      77  64  63 N5        29.92S
FARMVILLE*     SUNNY     79  64  59 S7        29.91F
CREWE*         FAIR     N/A N/A N/A W3        29.92S
FORT PICKETT*  FAIR      79  68  69 SW3       29.93S
CHASE CITY*    FAIR      79  72  79 CALM      29.95R
CLARKSVILLE*   FAIR      79  70  73 SW7       29.93F
SOUTH HILL*    SUNNY     80  72  75 S5        29.99S
LAWRENCEVILLE* FAIR      81  72  74 SW8       29.93F
EMPORIA*       SUNNY     81  72  74 S6        29.94F
$$

VAZ088>098-031500-
SOUTHEAST VIRGINIA

CITY           SKY/WX    TMP DP  RH WIND       PRES   REMARKS
NORFOLK        SUNNY     83  70  64 SW9       29.93R
VIRGINIA BEACH MOSUNNY   84  71  65 SW12      29.92F
NORFOLK NAVAL  MOSUNNY   81  72  74 S9        29.94S
WEST POINT*    SUNNY     82  70  66 S3        29.92F
SALUDA*        FAIR      79  72  79 SW3       29.91S
NEWPORT NEWS   SUNNY     81  72  74 SW12      29.92F
LANGLEY AFB    SUNNY     81  73  74 SW13      29.92S
FORT EUSTIS    SUNNY     80  78  94 SW8       29.91S
WILLIAMSBURG*  SUNNY     82  73  74 S7        29.93S
HR EXEC AP*    FAIR      82  73  74 S9        29.95S
FRANKLIN*      SUNNY     82  73  74 SW7       29.93F
WAKEFIELD      SUNNY     82  72  71 S3        29.92F
$$

VAZ020-022-025-037-045-031500-
WEST CENTRAL AND SOUTHWEST VIRGINIA

CITY           SKY/WX    TMP DP  RH WIND       PRES   REMARKS
STAUNTON*      SUNNY     80  61  53 SW7       29.96S
WAYNESBORO*    FAIR      75  61  60 W5        29.96F
HOT SPRINGS VA SUNNY     68  57  67 W16       30.05S
LYNCHBURG      PTSUNNY   75  61  61 SW3       29.97R
DANVILLE       SUNNY     77  66  68 VRB3      29.95S
SOUTH BOSTON*  PTSUNNY   76  68  76 W6        29.94S
MARTINSVILLE   SUNNY     78  64  62 S6        29.99R
ROANOKE        MOSUNNY   76  60  57 W6        29.99S
BLACKSBURG     MOSUNNY   71  62  73 W5        30.06S
DUBLIN*          N/A     75  62  63 W6        30.04F
MARION*        SUNNY     75  61  61 SW5       30.08F
HILLSVILLE*    PTSUNNY   70  62  74 NW3       30.05S
RICHLANDS*     FAIR      71  62  71 CALM      30.07S
WISE*          SUNNY     73  55  53 NW8       30.08F
ABINGDON*      MOSUNNY   78  59  52 CALM      30.04S
$$

MDZ021>025-VAZ099-100-031500-
SOUTHERN MARYLAND AND THE DELMARVA PENINSULA

CITY           SKY/WX    TMP DP  RH WIND       PRES   REMARKS
PATUXENT RIVER MOSUNNY   82  68  62 SW8       29.90R
BAY BRIDGE APT   N/A     81  61  50 SW7       29.89S
LEONARDTOWN    MOSUNNY   81  64  57 SW6       29.92R
DOVER          SUNNY     82  70  66 SW14      29.88R
GEORGETOWN     SUNNY     83  68  60 SW10      29.91R
EASTON         MOSUNNY   84  66  54 SW8       29.93R
CAMBRIDGE      SUNNY     82  66  57 SW7       29.89S
SALISBURY      SUNNY     81  72  74 S8        29.91R
OCEAN CITY     PTSUNNY   83  73  72 S8        29.91S
WALLOPS ISLAND PTSUNNY   82  76  81 S10       29.92S
ACCOMACK*      MOSUNNY   82  73  74 S9        29.92S
$$

NCZ012>017-030>032-031500-
NORTH CENTRAL AND EASTERN NORTH CAROLINA

CITY           SKY/WX    TMP DP  RH WIND       PRES   REMARKS
ROANOKE RAPIDS FAIR      81  72  74 SW9       29.93F
RALEIGH        MOSUNNY   81  73  76 SW6       29.95S
ELIZABETH CITY MOSUNNY   82  74  76 SW9       29.94F
AHOSKIE*       SUNNY     81  72  75 CALM      29.93S
EDENTON*         N/A     80  74  80 SW9       29.94F
CURRITUCK*     SUNNY     83  70  64 SW8       29.94F
KILL DEVIL HLS SUNNY     81  72  75 SW7       29.95S
MANTEO         SUNNY     78  72  81 SW16      29.96S
CAPE HATTERAS  RAIN      70  68  93 NW6       30.02R
TARBORO*         N/A     80  74  79 SW6       29.94F
GOLDSBORO      MOSUNNY   83  73  72 W5        29.92F
WASHINGTON     SUNNY     81  73  78 SW5       29.94F
GREENVILLE     PTSUNNY   81  73  78 SW6       29.96F
NEW BERN       LGT RAIN  76  72  87 S6        29.97S
WILMINGTON     PTSUNNY   79  74  84 SW3       29.95R
$$

VAZ048-031500-
ELSEWHERE

CITY           SKY/WX    TMP DP  RH WIND       PRES   REMARKS
HARRISBURG PA  SUNNY     79  62  56 CALM      29.85S
BALTIMORE      MOSUNNY   81  62  52 SW10      29.87F
ANNAPOLIS      SUNNY     80  61  52 SW9       29.88S
ANDREWS AFB    SUNNY     82  62  51 SW14      29.89S
PHILADELPHIA   MOSUNNY   83  63  50 SW15      29.87S
HENDERSON NC   SUNNY     80  68  67 SW7       29.95S
GREENSBORO     MOSUNNY   80  68  66 W7        29.96S
ROCKY MOUNT    PTSUNNY   81  72  74 W7        29.94F
$$

VAZ100-031500-
MARINE

STATION/POSITION TIME  TEMP    WIND        PRES    WAVE   SWELL
                       AIR SEA DIR/SP/G            HT/PER HT/PER
                 (UTC) (F)     (DEG/KT/KT) (MB)    (FT/S) (FT/S)
BRANDYWINE LGT   1300   76 77  230/ 12/ 13 1012.4R
CAPE MAY NJ      1300   76 74  210/  7/  9 1012.0R
LEWES DE         1300   80 72  240/  6/  9 1012.1S
15NM E FENWICK I 1350   78 80  200/ 10/ 12 1013.1R   2/11   2/11
OCEAN-CITY-INLET 1300   79 77  220/  8/ 10 1012.0R
WACHAPREAGUE VA  1300   80 82  220/  6/  7 1013.2R
THOMAS POINT MD  1400   78     240/ 11     1012.4
GOOSES REEF MD   1400   81 81  250/ 10/ 14 1013.3R
COVE POINT MD    1300   80     260/  9/ 12 1012.8R
SOLOMONS ISLAND  1300      82                N/A
BISHOPS HEAD MD  1300   80 80  210/ 11/ 13 1011.5R
PINEY POINT MD   1300          240/  6/  8   N/A
POTOMAC MD       1400   81 83  220/  8/ 10 1011.7R   1/ 4
CAMBRIDGE MD     1300   79 84  220/  7/ 10 1011.4R
LEWISETTA VA     1300   79 83  210/  6/  8 1012.2R
RAPPAHANNOCK LGT 1300          230/  8/  9 1013.5R
STINGRAY PT      1400   79 83  210/  6/  8 1013.1S   0
YORK RVR RNG VA  1300   79     240/ 10/ 12 1012.5R
YORKTOWN VA      1300   78 83  240/ 11/ 13 1012.7R
JAMESTOWN VA     1400   79 85  210/  4/  6   N/A
DOMINION TERM VA 1300   77     230/  8/ 11 1013.2R
KIPTOPEKE VA     1300      81  230/ 10/ 12   N/A
CHES BAY BRIDGE  1300   79 81  210/ 12/ 13 1012.9R
CAPE HENRY VA    1300   80     210/  7/ 10   N/A
CHESAPEAKE LGHT  1300   78     210/ 14/ 16 1014.2R
WILLOUBY STN VA  1300   77     240/ 13/ 15 1014.1R
CAPE HENRY BUOY  1328      81                N/A     2/11   2/11
1ST LANDING BUOY 1400      81              1013.1F   2/ 4
CAPE CHARLES BUO 1326      80                N/A     2/11   2/11
OFFSHORE WE BUOY 1311      82                N/A     3/ 6   2/ 6
64NM E OF VA BCH 1350   80 81  190/ 17/ 19 1013.2F   3/ 7   2/ 7
DUCK PIER NC     1300   78 77  190/ 13/ 16 1013.1R
44100 DUCK FRF   1324      81                N/A     2/11   2/11
44056 DUCK FRF   1311      79                N/A     2/11   2/11
OREGON INLET NC  1300   77 83  190/ 12/ 14 1014.5S
HATTERAS NC      1300   71 82  350/  6/  7 1015.2R


USA.gov is the U.S. government's official web portal to all federal, state and local government web resources and services.